| time (UTC) | temp F | wind direction | speed MPH | gust MPH | rain 1hr in | rain 24hr in | rain mn in | humidity % | barometer mb |
| 20260503033105 | 41 | 86 | 2.0 | 3.0 | 0.00 | 0.03 | 0.03 | 99 | 1015.2 |
| 20260503032603 | 42 | 75 | 3.0 | 3.0 | 0.00 | 0.03 | 0.03 | 99 | 1015.1 |
| 20260503032101 | 42 | 77 | 3.0 | 3.0 | 0.00 | 0.03 | 0.03 | 99 | 1014.9 |
| 20260503031558 | 42 | 58 | 3.0 | 5.0 | 0.00 | 0.03 | 0.03 | 99 | 1015.1 |
| 20260503031055 | 42 | 73 | 3.0 | 4.0 | 0.00 | 0.03 | 0.03 | 99 | 1015.0 |
| 20260503030551 | 42 | 34 | 6.0 | 6.0 | 0.00 | 0.03 | 0.03 | 99 | 1014.9 |
| 20260503030048 | 42 | 70 | 3.0 | 3.0 | 0.00 | 0.03 | 0.03 | 99 | 1014.8 |
| 20260503025545 | 41 | 76 | 2.0 | 3.0 | 0.00 | 0.03 | 0.03 | 99 | 1014.5 |
| 20260503025043 | 42 | 77 | 3.0 | 3.0 | 0.00 | 0.03 | 0.03 | 99 | 1014.6 |
| 20260503024539 | 42 | 69 | 3.0 | 3.0 | 0.00 | 0.03 | 0.03 | 99 | 1014.6 |
| 20260503024036 | 42 | 71 | 2.0 | 3.0 | 0.00 | 0.03 | 0.03 | 99 | 1014.5 |
| 20260503023533 | 42 | 65 | 3.0 | 4.0 | 0.00 | 0.03 | 0.03 | 99 | 1014.4 |
| 20260503023031 | 42 | 80 | 3.0 | 3.0 | 0.00 | 0.03 | 0.03 | 99 | 1014.5 |
| 20260503022526 | 42 | 79 | 3.0 | 4.0 | 0.00 | 0.03 | 0.03 | 99 | 1014.5 |
| 20260503022021 | 42 | 73 | 3.0 | 4.0 | 0.00 | 0.03 | 0.03 | 99 | 1014.3 |
| 20260503021518 | 43 | 77 | 3.0 | 3.0 | 0.00 | 0.03 | 0.03 | 99 | 1014.4 |
| 20260503021015 | 43 | 67 | 2.0 | 3.0 | 0.00 | 0.03 | 0.03 | 99 | 1014.2 |
| 20260503020512 | 43 | 60 | 3.0 | 4.0 | 0.00 | 0.03 | 0.03 | 99 | 1014.3 |
| 20260503020009 | 43 | 71 | 3.0 | 3.0 | 0.00 | 0.03 | 0.03 | 99 | 1014.1 |
| 20260503015506 | 43 | 69 | 3.0 | 3.0 | 0.00 | 0.03 | 0.03 | 99 | 1014.3 |
| 20260503015003 | 44 | 69 | 3.0 | 3.0 | 0.00 | 0.03 | 0.03 | 99 | 1014.0 |
| 20260503014459 | 44 | 72 | 3.0 | 3.0 | 0.00 | 0.03 | 0.03 | 99 | 1014.0 |
| 20260503013957 | 44 | 84 | 3.0 | 4.0 | 0.00 | 0.03 | 0.03 | 98 | 1013.9 |
| 20260503013454 | 44 | 67 | 3.0 | 3.0 | 0.00 | 0.03 | 0.03 | 98 | 1013.7 |
| 20260503012951 | 45 | 71 | 3.0 | 3.0 | 0.00 | 0.03 | 0.03 | 98 | 1013.7 |
| 20260503012449 | 45 | 77 | 3.0 | 3.0 | 0.00 | 0.03 | 0.03 | 98 | 1013.7 |
| 20260503011944 | 45 | 86 | 3.0 | 3.0 | 0.00 | 0.03 | 0.03 | 97 | 1013.7 |
| 20260503011442 | 45 | 75 | 2.0 | 3.0 | 0.00 | 0.03 | 0.03 | 97 | 1013.8 |
| 20260503010939 | 45 | 78 | 2.0 | 3.0 | 0.00 | 0.03 | 0.03 | 96 | 1013.4 |
| 20260503010435 | 46 | 79 | 3.0 | 3.0 | 0.00 | 0.03 | 0.03 | 95 | 1013.6 |
| 20260503005933 | 46 | 74 | 3.0 | 3.0 | 0.00 | 0.03 | 0.03 | 95 | 1013.5 |
| 20260503005430 | 46 | 67 | 2.0 | 3.0 | 0.00 | 0.03 | 0.03 | 95 | 1013.4 |
| 20260503004926 | 46 | 70 | 2.0 | 3.0 | 0.00 | 0.03 | 0.03 | 94 | 1013.4 |
| 20260503004423 | 47 | 80 | 2.0 | 3.0 | 0.00 | 0.03 | 0.03 | 94 | 1013.0 |
| 20260503003921 | 47 | 82 | 3.0 | 3.0 | 0.00 | 0.03 | 0.03 | 93 | 1013.0 |
| 20260503003418 | 47 | 72 | 3.0 | 3.0 | 0.00 | 0.03 | 0.03 | 92 | 1013.1 |
| 20260503002915 | 48 | 71 | 3.0 | 3.0 | 0.00 | 0.03 | 0.03 | 90 | 1013.3 |
| 20260503002412 | 48 | 66 | 3.0 | 3.0 | 0.00 | 0.03 | 0.03 | 89 | 1013.0 |
| 20260503001908 | 49 | 77 | 3.0 | 3.0 | 0.00 | 0.03 | 0.03 | 87 | 1012.8 |
| 20260503001404 | 49 | 72 | 3.0 | 3.0 | 0.00 | 0.03 | 0.03 | 85 | 1012.9 |
| 20260503000903 | 50 | 72 | 2.0 | 3.0 | 0.00 | 0.03 | 0.03 | 83 | 1012.7 |
| 20260503000400 | 50 | 58 | 3.0 | 3.0 | 0.00 | 0.03 | 0.03 | 80 | 1012.7 |
| 20260502235856 | 51 | 80 | 2.0 | 2.0 | 0.00 | 0.03 | 0.03 | 80 | 1012.8 |
| 20260502235353 | 52 | 67 | 2.0 | 3.0 | 0.00 | 0.03 | 0.03 | 78 | 1012.6 |
| 20260502234850 | 52 | 67 | 2.0 | 3.0 | 0.00 | 0.03 | 0.03 | 76 | 1012.9 |
| 20260502234347 | 53 | 61 | 3.0 | 3.0 | 0.00 | 0.03 | 0.03 | 77 | 1012.3 |
| 20260502233844 | 53 | 65 | 2.0 | 2.0 | 0.00 | 0.03 | 0.03 | 76 | 1012.5 |
| 20260502233340 | 53 | 74 | 2.0 | 2.0 | 0.00 | 0.03 | 0.03 | 72 | 1012.3 |
| 20260502232837 | 54 | 78 | 2.0 | 2.0 | 0.00 | 0.03 | 0.03 | 73 | 1012.3 |
| 20260502232333 | 54 | 74 | 1.0 | 2.0 | 0.00 | 0.03 | 0.03 | 73 | 1012.3 |
| 20260502231830 | 54 | 85 | 2.0 | 2.0 | 0.00 | 0.03 | 0.03 | 72 | 1012.0 |
| 20260502231328 | 55 | 83 | 2.0 | 2.0 | 0.00 | 0.03 | 0.03 | 72 | 1012.2 |
| 20260502230826 | 55 | 76 | 1.0 | 2.0 | 0.00 | 0.03 | 0.03 | 69 | 1012.1 |
| 20260502230324 | 56 | 63 | 3.0 | 3.0 | 0.00 | 0.03 | 0.03 | 69 | 1012.1 |
| 20260502225820 | 56 | 65 | 2.0 | 3.0 | 0.00 | 0.03 | 0.03 | 68 | 1012.0 |
| 20260502225317 | 56 | 75 | 2.0 | 3.0 | 0.00 | 0.03 | 0.03 | 67 | 1012.2 |
| 20260502224814 | 56 | 53 | 3.0 | 4.0 | 0.00 | 0.03 | 0.03 | 67 | 1012.2 |
| 20260502224310 | 56 | 72 | 2.0 | 5.0 | 0.00 | 0.03 | 0.03 | 67 | 1012.0 |
| 20260502223808 | 56 | 33 | 4.0 | 5.0 | 0.00 | 0.03 | 0.03 | 63 | 1012.0 |
| 20260502223305 | 56 | 70 | 3.0 | 3.0 | 0.00 | 0.03 | 0.03 | 68 | 1012.1 |
| 20260502222803 | 56 | 32 | 3.0 | 5.0 | 0.00 | 0.03 | 0.03 | 63 | 1012.1 |
| 20260502222300 | 56 | 55 | 3.0 | 5.0 | 0.00 | 0.03 | 0.03 | 63 | 1012.0 |
| 20260502221755 | 57 | 16 | 5.0 | 7.0 | 0.00 | 0.03 | 0.03 | 61 | 1011.9 |
| 20260502221252 | 57 | 74 | 3.0 | 5.0 | 0.00 | 0.03 | 0.03 | 63 | 1011.7 |
| 20260502220749 | 57 | 49 | 3.0 | 6.0 | 0.00 | 0.03 | 0.03 | 59 | 1011.7 |
| 20260502220245 | 58 | 60 | 3.0 | 6.0 | 0.00 | 0.03 | 0.03 | 62 | 1011.8 |
| 20260502215742 | 56 | 61 | 3.0 | 5.0 | 0.00 | 0.03 | 0.03 | 64 | 1011.8 |
| 20260502215239 | 55 | 43 | 3.0 | 5.0 | 0.00 | 0.03 | 0.03 | 64 | 1012.0 |
| 20260502214736 | 55 | 37 | 4.0 | 5.0 | 0.00 | 0.03 | 0.03 | 64 | 1011.7 |
| 20260502214235 | 55 | 35 | 5.0 | 5.0 | 0.00 | 0.03 | 0.03 | 65 | 1011.5 |
| 20260502213730 | 55 | 34 | 5.0 | 6.0 | 0.00 | 0.03 | 0.03 | 64 | 1011.6 |
| 20260502213228 | 56 | 25 | 5.0 | 5.0 | 0.00 | 0.03 | 0.03 | 66 | 1011.8 |
| 20260502212726 | 56 | 43 | 4.0 | 5.0 | 0.00 | 0.03 | 0.03 | 64 | 1011.6 |
| 20260502212224 | 56 | 65 | 3.0 | 5.0 | 0.00 | 0.03 | 0.03 | 64 | 1011.6 |
| 20260502211720 | 56 | 73 | 2.0 | 6.0 | 0.00 | 0.03 | 0.03 | 65 | 1011.5 |
| 20260502211217 | 57 | 75 | 2.0 | 5.0 | 0.00 | 0.03 | 0.03 | 64 | 1011.7 |
| 20260502210714 | 57 | 64 | 2.0 | 6.0 | 0.00 | 0.03 | 0.03 | 64 | 1011.6 |
| 20260502210211 | 57 | 44 | 3.0 | 7.0 | 0.00 | 0.03 | 0.03 | 62 | 1011.6 |
| 20260502205708 | 57 | 42 | 4.0 | 10.0 | 0.00 | 0.03 | 0.03 | 64 | 1011.7 |
| 20260502205204 | 57 | 55 | 4.0 | 9.0 | 0.00 | 0.03 | 0.03 | 63 | 1011.8 |
| 20260502204702 | 57 | 50 | 1.0 | 7.0 | 0.00 | 0.03 | 0.03 | 63 | 1011.7 |
| 20260502204159 | 57 | 54 | 3.0 | 5.0 | 0.00 | 0.03 | 0.03 | 63 | 1011.7 |
| 20260502203656 | 58 | 64 | 1.0 | 4.0 | 0.00 | 0.03 | 0.03 | 64 | 1011.7 |
| 20260502203155 | 58 | 42 | 5.0 | 6.0 | 0.00 | 0.03 | 0.03 | 64 | 1011.6 |
| 20260502202648 | 58 | 64 | 0.0 | 8.0 | 0.00 | 0.03 | 0.03 | 63 | 1011.7 |
| 20260502202147 | 58 | 351 | 0.0 | 5.0 | 0.00 | 0.03 | 0.03 | 63 | 1011.8 |
| 20260502201643 | 58 | 63 | 2.0 | 10.0 | 0.00 | 0.03 | 0.03 | 64 | 1011.8 |
| 20260502201140 | 58 | 66 | 3.0 | 7.0 | 0.00 | 0.03 | 0.03 | 64 | 1011.6 |
| 20260502200636 | 58 | 38 | 5.0 | 5.0 | 0.00 | 0.03 | 0.03 | 65 | 1011.7 |
| 20260502200133 | 58 | 154 | 2.0 | 7.0 | 0.00 | 0.03 | 0.03 | 62 | 1011.8 |
| 20260502195631 | 59 | 44 | 6.0 | 9.0 | 0.00 | 0.03 | 0.03 | 62 | 1011.8 |
| 20260502195127 | 59 | 35 | 4.0 | 4.0 | 0.00 | 0.03 | 0.03 | 61 | 1011.7 |
| 20260502194624 | 59 | 33 | 4.0 | 5.0 | 0.00 | 0.03 | 0.03 | 63 | 1011.8 |
| 20260502194120 | 60 | 292 | 2.0 | 4.0 | 0.00 | 0.03 | 0.03 | 61 | 1012.0 |
| 20260502193617 | 60 | 30 | 4.0 | 5.0 | 0.00 | 0.03 | 0.03 | 61 | 1011.7 |
| 20260502193114 | 61 | 290 | 2.0 | 3.0 | 0.00 | 0.03 | 0.03 | 57 | 1011.9 |
| 20260502192609 | 61 | 26 | 4.0 | 6.0 | 0.00 | 0.03 | 0.03 | 58 | 1012.2 |
| 20260502192107 | 60 | 52 | 3.0 | 4.0 | 0.00 | 0.03 | 0.03 | 66 | 1012.0 |
| 20260502191604 | 59 | 118 | 3.0 | 5.0 | 0.00 | 0.03 | 0.03 | 62 | 1012.1 |
| 20260502191102 | 59 | 41 | 3.0 | 4.0 | 0.00 | 0.03 | 0.03 | 65 | 1012.1 |
| 20260502190559 | 58 | 26 | 5.0 | 5.0 | 0.00 | 0.03 | 0.03 | 65 | 1012.4 |
| 20260502190056 | 59 | 32 | 4.0 | 11.0 | 0.00 | 0.03 | 0.03 | 62 | 1011.9 |
| 20260502185550 | 58 | 49 | 4.0 | 6.0 | 0.00 | 0.03 | 0.03 | 64 | 1012.2 |
| 20260502185048 | 59 | 39 | 5.0 | 8.0 | 0.00 | 0.03 | 0.03 | 62 | 1012.1 |
| 20260502184544 | 60 | 19 | 5.0 | 10.0 | 0.00 | 0.03 | 0.03 | 60 | 1012.2 |
| 20260502184040 | 59 | 65 | 2.0 | 4.0 | 0.00 | 0.03 | 0.03 | 67 | 1012.0 |
| 20260502183536 | 59 | 62 | 3.0 | 5.0 | 0.00 | 0.03 | 0.03 | 67 | 1012.2 |
| 20260502183033 | 59 | 33 | 4.0 | 6.0 | 0.00 | 0.03 | 0.03 | 63 | 1012.2 |
| 20260502182527 | 59 | 72 | 3.0 | 6.0 | 0.00 | 0.03 | 0.03 | 66 | 1012.3 |
| 20260502182024 | 59 | 26 | 5.0 | 10.0 | 0.00 | 0.03 | 0.03 | 64 | 1012.3 |
| 20260502181522 | 59 | 49 | 4.0 | 9.0 | 0.00 | 0.03 | 0.03 | 64 | 1012.3 |
| 20260502181021 | 58 | 62 | 5.0 | 10.0 | 0.00 | 0.03 | 0.03 | 67 | 1012.5 |
| 20260502180517 | 58 | 22 | 5.0 | 9.0 | 0.00 | 0.03 | 0.03 | 64 | 1012.6 |
| 20260502170430 | 57 | 53 | 4.0 | 7.0 | 0.00 | 0.03 | 0.03 | 70 | 1012.8 |
| 20260502163913 | 57 | 46 | 4.0 | 7.0 | 0.00 | 0.03 | 0.03 | 69 | 1013.2 |
| 20260502163409 | 57 | 37 | 4.0 | 7.0 | 0.00 | 0.03 | 0.03 | 70 | 1013.0 |
| 20260502162908 | 58 | 81 | 4.0 | 5.0 | 0.00 | 0.03 | 0.03 | 72 | 1013.1 |
| 20260502162404 | 58 | 54 | 4.0 | 10.0 | 0.00 | 0.03 | 0.03 | 75 | 1013.2 |
| 20260502161901 | 57 | 34 | 4.0 | 7.0 | 0.00 | 0.03 | 0.03 | 73 | 1013.4 |
| 20260502161357 | 56 | 57 | 5.0 | 7.0 | 0.00 | 0.03 | 0.03 | 75 | 1013.5 |
| 20260502160855 | 55 | 61 | 4.0 | 7.0 | 0.00 | 0.03 | 0.03 | 77 | 1013.6 |
| 20260502160353 | 55 | 11 | 4.0 | 10.0 | 0.02 | 0.03 | 0.03 | 74 | 1013.8 |
| 20260502152334 | 54 | 60 | 3.0 | 5.0 | 0.00 | 0.02 | 0.02 | 81 | 1013.9 |
| 20260502151832 | 54 | 28 | 4.0 | 4.0 | 0.00 | 0.02 | 0.02 | 82 | 1013.9 |
| 20260502151328 | 54 | 43 | 5.0 | 5.0 | 0.00 | 0.02 | 0.02 | 82 | 1013.6 |
| 20260502150826 | 54 | 51 | 4.0 | 7.0 | 0.00 | 0.02 | 0.02 | 85 | 1013.6 |
| 20260502150322 | 53 | 75 | 3.0 | 4.0 | 0.00 | 0.02 | 0.02 | 85 | 1013.7 |
| 20260502130710 | 51 | 48 | 4.0 | 6.0 | 0.00 | 0.02 | 0.02 | 85 | 1013.1 |
| 20260502130208 | 51 | 43 | 6.0 | 7.0 | 0.00 | 0.02 | 0.02 | 83 | 1012.8 |
| 20260502123654 | 51 | 64 | 3.0 | 5.0 | 0.00 | 0.02 | 0.02 | 87 | 1013.1 |
| 20260502123150 | 51 | 43 | 5.0 | 7.0 | 0.00 | 0.02 | 0.02 | 87 | 1013.2 |
| 20260502122647 | 51 | 36 | 5.0 | 7.0 | 0.00 | 0.02 | 0.02 | 88 | 1013.2 |
| 20260502122143 | 51 | 40 | 5.0 | 6.0 | 0.00 | 0.02 | 0.02 | 89 | 1013.0 |
| 20260502121642 | 51 | 42 | 5.0 | 7.0 | 0.00 | 0.02 | 0.02 | 90 | 1013.0 |
| 20260502121139 | 51 | 26 | 7.0 | 9.0 | 0.00 | 0.02 | 0.02 | 88 | 1013.0 |
| 20260502120635 | 51 | 30 | 5.0 | 8.0 | 0.00 | 0.02 | 0.02 | 90 | 1012.9 |
| 20260502120132 | 51 | 38 | 5.0 | 6.0 | 0.00 | 0.02 | 0.02 | 91 | 1012.7 |
| 20260502115630 | 50 | 37 | 5.0 | 7.0 | 0.00 | 0.02 | 0.02 | 91 | 1012.7 |
| 20260502115126 | 50 | 54 | 5.0 | 5.0 | 0.00 | 0.02 | 0.02 | 91 | 1012.8 |
| 20260502114622 | 50 | 46 | 5.0 | 6.0 | 0.02 | 0.02 | 0.02 | 91 | 1013.0 |
| 20260502114120 | 50 | 45 | 4.0 | 4.0 | 0.02 | 0.02 | 0.02 | 92 | 1012.8 |
| 20260502113617 | 50 | 42 | 4.0 | 5.0 | 0.00 | 0.01 | 0.01 | 91 | 1012.9 |
| 20260502113115 | 50 | 78 | 2.0 | 5.0 | 0.00 | 0.01 | 0.01 | 92 | 1012.8 |
| 20260502112613 | 50 | 52 | 4.0 | 5.0 | 0.00 | 0.01 | 0.01 | 91 | 1013.0 |
| 20260502112110 | 50 | 78 | 3.0 | 5.0 | 0.00 | 0.01 | 0.01 | 91 | 1012.6 |
| 20260502111607 | 50 | 52 | 3.0 | 4.0 | 0.02 | 0.01 | 0.01 | 92 | 1012.8 |
| 20260502111104 | 50 | 60 | 3.0 | 6.0 | 0.02 | 0.01 | 0.01 | 91 | 1012.7 |
| 20260502110602 | 50 | 68 | 3.0 | 3.0 | 0.00 | 0.01 | 0.01 | 92 | 1012.6 |
| 20260502110059 | 51 | 45 | 4.0 | 4.0 | 0.00 | 0.01 | 0.01 | 92 | 1012.7 |
| 20260502105556 | 51 | 68 | 3.0 | 5.0 | 0.00 | 0.01 | 0.01 | 91 | 1012.9 |
| 20260502105054 | 51 | 78 | 3.0 | 6.0 | 0.00 | 0.01 | 0.01 | 90 | 1012.8 |
| 20260502104551 | 51 | 47 | 4.0 | 6.0 | 0.00 | 0.01 | 0.01 | 89 | 1012.9 |
| 20260502104048 | 51 | 62 | 3.0 | 7.0 | 0.02 | 0.01 | 0.01 | 89 | 1012.8 |
| 20260502103546 | 52 | 30 | 5.0 | 6.0 | 0.00 | 0.00 | 0.00 | 89 | 1012.9 |
| 20260502103044 | 52 | 26 | 6.0 | 9.0 | 0.00 | 0.00 | 0.00 | 89 | 1013.0 |
| 20260502102540 | 52 | 28 | 4.0 | 6.0 | 0.00 | 0.00 | 0.00 | 91 | 1012.9 |
| 20260502102037 | 52 | 27 | 5.0 | 6.0 | 0.02 | 0.00 | 0.00 | 92 | 1013.0 |
| 20260502101535 | 52 | 45 | 5.0 | 6.0 | 0.00 | 0.00 | 0.00 | 92 | 1012.9 |
| 20260502101033 | 52 | 45 | 4.0 | 5.0 | 0.00 | 0.00 | 0.00 | 93 | 1013.0 |
| 20260502100531 | 52 | 83 | 3.0 | 5.0 | 0.00 | 0.00 | 0.00 | 93 | 1013.1 |
| 20260502091506 | 51 | 35 | 5.0 | 7.0 | 0.00 | 0.00 | 0.00 | 96 | 1012.8 |
| 20260502091003 | 51 | 38 | 5.0 | 8.0 | 0.00 | 0.00 | 0.00 | 97 | 1012.7 |
| 20260502090500 | 51 | 30 | 4.0 | 6.0 | 0.00 | 0.00 | 0.00 | 97 | 1013.0 |
| 20260502071355 | 49 | 59 | 3.0 | 3.0 | 0.00 | 0.00 | 0.00 | 99 | 1011.7 |
| 20260502070853 | 49 | 66 | 2.0 | 3.0 | 0.00 | 0.00 | 0.00 | 99 | 1011.6 |
| 20260502070350 | 49 | 66 | 2.0 | 3.0 | 0.00 | 0.00 | 0.00 | 99 | 1011.5 |
| 20260502065849 | 49 | 67 | 2.0 | 3.0 | 0.00 | 0.00 | 0.00 | 99 | 1011.7 |
| 20260502065347 | 49 | 69 | 3.0 | 3.0 | 0.00 | 0.00 | 0.00 | 99 | 1011.7 |
| 20260502064844 | 49 | 74 | 3.0 | 3.0 | 0.00 | 0.00 | 0.00 | 99 | 1012.0 |
| 20260502064342 | 49 | 77 | 3.0 | 3.0 | 0.00 | 0.00 | 0.00 | 99 | 1011.9 |
| 20260502063839 | 49 | 71 | 2.0 | 3.0 | 0.00 | 0.00 | 0.00 | 99 | 1012.0 |
| 20260502063337 | 49 | 73 | 2.0 | 3.0 | 0.00 | 0.00 | 0.00 | 99 | 1012.0 |
| 20260502062834 | 49 | 61 | 3.0 | 3.0 | 0.00 | 0.00 | 0.00 | 99 | 1012.0 |
| 20260502062331 | 49 | 64 | 3.0 | 3.0 | 0.00 | 0.00 | 0.00 | 99 | 1012.3 |
| 20260502061830 | 49 | 71 | 2.0 | 2.0 | 0.00 | 0.00 | 0.00 | 99 | 1012.4 |
| 20260502061327 | 49 | 61 | 1.0 | 2.0 | 0.00 | 0.00 | 0.00 | 99 | 1012.5 |
| 20260502060823 | 49 | 80 | 2.0 | 3.0 | 0.00 | 0.00 | 0.00 | 99 | 1012.5 |
| 20260502060318 | 49 | 62 | 2.0 | 2.0 | 0.00 | 0.00 | 0.00 | 99 | 1012.6 |
| 20260502055816 | 49 | 73 | 2.0 | 2.0 | 0.00 | 0.00 | 0.00 | 99 | 1012.4 |
| 20260502055314 | 49 | 73 | 2.0 | 3.0 | 0.00 | 0.00 | 0.00 | 99 | 1012.4 |
| 20260502054813 | 49 | 76 | 3.0 | 3.0 | 0.00 | 0.00 | 0.00 | 99 | 1012.6 |
| 20260502054311 | 49 | 71 | 3.0 | 3.0 | 0.00 | 0.00 | 0.00 | 99 | 1012.4 |
| 20260502053808 | 49 | 75 | 3.0 | 3.0 | 0.00 | 0.00 | 0.00 | 99 | 1012.7 |
| 20260502053305 | 49 | 75 | 3.0 | 3.0 | 0.00 | 0.00 | 0.00 | 99 | 1012.6 |
| 20260502052803 | 49 | 73 | 3.0 | 3.0 | 0.00 | 0.00 | 0.00 | 99 | 1012.6 |
| 20260502052300 | 49 | 63 | 2.0 | 3.0 | 0.00 | 0.00 | 0.00 | 99 | 1012.7 |
| 20260502051758 | 49 | 70 | 3.0 | 3.0 | 0.00 | 0.00 | 0.00 | 99 | 1012.6 |
| 20260502051257 | 49 | 67 | 3.0 | 3.0 | 0.00 | 0.00 | 0.00 | 99 | 1012.7 |
| 20260502050752 | 49 | 61 | 3.0 | 3.0 | 0.00 | 0.00 | 0.00 | 99 | 1012.6 |
| 20260502050248 | 49 | 58 | 3.0 | 3.0 | 0.00 | 0.00 | 0.00 | 99 | 1012.9 |
| 20260502045746 | 49 | 65 | 3.0 | 3.0 | 0.00 | 0.00 | 0.00 | 99 | 1012.8 |
| 20260502045243 | 49 | 75 | 3.0 | 3.0 | 0.00 | 0.00 | 0.00 | 99 | 1012.6 |
| 20260502044739 | 49 | 72 | 3.0 | 3.0 | 0.00 | 0.00 | 0.00 | 99 | 1012.6 |
| 20260502044235 | 49 | 75 | 3.0 | 3.0 | 0.00 | 0.00 | 0.00 | 99 | 1012.7 |
| 20260502043733 | 49 | 78 | 2.0 | 3.0 | 0.00 | 0.00 | 0.00 | 99 | 1013.1 |
| 20260502043231 | 49 | 74 | 3.0 | 3.0 | 0.00 | 0.00 | 0.00 | 99 | 1013.1 |
| 20260502042730 | 49 | 75 | 3.0 | 3.0 | 0.00 | 0.00 | 0.00 | 99 | 1012.9 |
| 20260502042227 | 49 | 72 | 3.0 | 3.0 | 0.00 | 0.00 | 0.00 | 99 | 1013.0 |
| 20260502041725 | 49 | 69 | 3.0 | 3.0 | 0.00 | 0.00 | 0.00 | 99 | 1013.2 |
| 20260502041222 | 49 | 67 | 3.0 | 3.0 | 0.00 | 0.00 | 0.00 | 99 | 1013.1 |
| 20260502040719 | 49 | 55 | 3.0 | 3.0 | 0.00 | 0.00 | 0.00 | 99 | 1012.8 |
| 20260502040216 | 49 | 63 | 3.0 | 3.0 | 0.00 | 0.00 | 0.00 | 99 | 1012.9 |
| 20260502035712 | 49 | 74 | 2.0 | 3.0 | 0.00 | 0.00 | 0.00 | 99 | 1013.1 |
| 20260502035209 | 49 | 64 | 3.0 | 3.0 | 0.00 | 0.00 | 0.00 | 99 | 1013.0 |
| 20260502034706 | 49 | 77 | 3.0 | 3.0 | 0.00 | 0.00 | 0.00 | 99 | 1013.0 |
| 20260502034205 | 49 | 74 | 2.0 | 3.0 | 0.00 | 0.00 | 0.00 | 99 | 1013.0 |
| 20260502033702 | 49 | 61 | 3.0 | 3.0 | 0.00 | 0.00 | 0.00 | 99 | 1013.1 |